Regional Weather Roundup
Issued by NWS

Home | Current Version | Previous Version | Graphics & Text | Print | Product List | Glossary On
Versions: 1 2 3 4 5 6 7 8 9 10 11 12 13 14 15 16 17 18 19 20 21 22 23 24 25 26 27 28 29 30 31 32 33 34 35 36 37 38 39 40 41 42 43 44 45 46 47 48 49 50
000
ASUS45 KPSR 311200
RWRAZ

ARIZONA HOURLY REGIONAL WEATHER ROUNDUP
NATIONAL WEATHER SERVICE PHOENIX AZ
500 AM MST MON AUG 31 2015

NOTE: FAIR INDICATES FEW OR NO CLOUDS BELOW 12,000 FEET WITH NO
SIGNIFICANT WEATHER AND/OR OBSTRUCTIONS TO VISIBILITY.

AZZ001>003-036-311300-
NORTHWEST ARIZONA

CITY           SKY/WX    TMP DP  RH WIND       PRES   REMARKS
KINGMAN        MOCLDY    75  43  31 SE10      29.96R
6HR MIN TEMP:  73; 6HR MAX TEMP:  80;

$$

AZZ004>008-015-016-018-311300-
NORTH CENTRAL ARIZONA

CITY           SKY/WX    TMP DP  RH WIND       PRES   REMARKS
GRAND CANYON     N/A    N/A N/A N/A MISG      30.24R
WILLIAMS       CLOUDY    57  52  82 SE10      30.29S
PRESCOTT       MOCLDY    66  58  75 CALM      30.13R
6HR MIN TEMP:  64; 6HR MAX TEMP:  73;

FLAGSTAFF      NOT AVBL
PAYSON         PTCLDY    68  55  64 E5        30.16S
PAGE           PTCLDY    66  59  78 SW3       30.09R
6HR MIN TEMP:  65; 6HR MAX TEMP:  72;

$$

AZZ009>014-017-311300-
NORTHEAST ARIZONA

CITY           SKY/WX    TMP DP  RH WIND       PRES   REMARKS
WINSLOW        NOT AVBL
SAINT JOHNS    PTCLDY    60  54  80 S3        30.21S
6HR MIN TEMP:  59; 6HR MAX TEMP:  67;

WINDOW ROCK    CLOUDY    57  51  80 CALM      30.27R
6HR MIN TEMP:  55; 6HR MAX TEMP:  62;

SHOW LOW       PTCLDY    54  50  87 CALM      30.26S
$$

AZZ023-311300-
GREATER PHOENIX AREA

CITY           SKY/WX    TMP DP  RH WIND       PRES   REMARKS
PHOENIX        PTCLDY    86  66  51 SE7       29.82R
6HR MIN TEMP:  86; 6HR MAX TEMP:  92;

LUKE AFB       CLEAR     85  66  51 CALM      29.82R
6HR MIN TEMP:  85; 6HR MAX TEMP:  91;

DEER VALLEY    CLEAR     85  62  46 E7        29.85R
6HR MIN TEMP:  85; 6HR MAX TEMP:  91;

SCOTTSDALE     CLEAR     85  64  49 CALM      29.87R
6HR MIN TEMP:  85; 6HR MAX TEMP:  91;

MESA-GATEWAY   PTCLDY    82  66  57 E7        29.87S
$$

AZZ027-028-311300-
SOUTHWEST MARICOPA COUNTY AND PINAL COUNTY

CITY           SKY/WX    TMP DP  RH WIND       PRES   REMARKS
CASA GRANDE    PTCLDY    82  63  51 CALM      29.86R
6HR MIN TEMP:  82; 6HR MAX TEMP:  88;

GILA BEND      FAIR      85  61  43 S5        29.79S
6HR MIN TEMP:  85; 6HR MAX TEMP:  93;

$$

AZZ503-504-507>509-311300-
SOUTHEAST ARIZONA

CITY           SKY/WX    TMP DP  RH WIND       PRES   REMARKS
TUCSON         PTCLDY    76  61  59 SE13      29.98S
6HR MIN TEMP:  76; 6HR MAX TEMP:  83;

DAVIS-MONTHAN  PTCLDY    74  62  64 SE10      29.97R
6HR MIN TEMP:  74; 6HR MAX TEMP:  81;

NOGALES        CLEAR     62  56  80 E3        30.07R
6HR MIN TEMP:  62; 6HR MAX TEMP:  67;

SIERRA VISTA   PTCLDY    70  53  54 VRB1      30.13R
6HR MIN TEMP:  68; 6HR MAX TEMP:  71;

SAFFORD        CLEAR     72  61  68 SE3       29.99S
6HR MIN TEMP:  72; 6HR MAX TEMP:  84;

$$

AZZ020-021-025-026-031-311300-
SOUTHWEST ARIZONA

CITY           SKY/WX    TMP DP  RH WIND       PRES   REMARKS
YUMA           CLEAR     88  63  43 SE3       29.73R
6HR MIN TEMP:  85; 6HR MAX TEMP:  93;

$$

CAZ031-033-041-043-047-048-061-311300-
SOUTHERN CALIFORNIA

CITY           SKY/WX    TMP DP  RH WIND       PRES   REMARKS
DOWNTOWN L.A.  PTCLDY    70  64  81 CALM      29.85R
6HR MIN TEMP:  70; 6HR MAX TEMP:  71;

L.A. AIRPORT   MOCLDY    68  64  87 E5        29.86R
6HR MIN TEMP:  68; 6HR MAX TEMP:  72;

SAN DIEGO      MOCLDY    70  63  78 VRB3      29.87R
6HR MIN TEMP:  70; 6HR MAX TEMP:  71;

BURBANK        CLEAR     70  63  78 SE6       29.86R
6HR MIN TEMP:  70; 6HR MAX TEMP:  75;

ONTARIO        CLEAR     69  60  73 CALM      29.86S
6HR MIN TEMP:  68; 6HR MAX TEMP:  74;

RIVERSIDE      CLEAR     69  60  73 CALM      29.86S
6HR MIN TEMP:  68; 6HR MAX TEMP:  74;

PALM SPRINGS   PTCLDY    81  58  45 SE5       29.76R
6HR MIN TEMP:  81; 6HR MAX TEMP:  93;

EL CENTRO NAS  MOCLDY    86  44  23 SW9       29.74R
6HR MIN TEMP:  83; 6HR MAX TEMP:  90;

IMPERIAL       PTCLDY    87  43  21 SW8       29.71R
6HR MIN TEMP:  83; 6HR MAX TEMP:  90;

BLYTHE         PTCLDY    84  48  28 CALM      29.74R
6HR MIN TEMP:  83; 6HR MAX TEMP:  94;

$$

NVZ020-UTZ003-311300-
SOUTHERN NEVADA-UTAH

CITY           SKY/WX    TMP DP  RH WIND       PRES   REMARKS
LAS VEGAS      NOT AVBL
SALT LAKE CITY MOCLDY    67  45  45 S10       30.02F
6HR MIN TEMP:  64; 6HR MAX TEMP:  74; 6HR PCP: TRACE;

$$

NMZ009-TXZ055-311300-
NEW MEXICO-WEST TEXAS

CITY           SKY/WX    TMP DP  RH WIND       PRES   REMARKS
ALBUQUERQUE    MOCLDY    68  48  48 CALM      30.16R
6HR MIN TEMP:  65; 6HR MAX TEMP:  78;

EL PASO        CLEAR     72  50  45 CALM      30.05R
6HR MIN TEMP:  71; 6HR MAX TEMP:  80;

$$


........................KEY........................
SKY/WX - SKY CONDITION/WEATHER
TMP    - TEMPERATURE IN FAHRENHEIT
DP     - DEW POINT IN FAHRENHEIT
RH     - RELATIVE HUMIDITY IN PERCENT
WIND   - DIRECTION AND SPEED IN MILES PER HOUR (MPH)
VRB    - VARIABLE WIND DIRECTION
PRES   - MEAN SEA LEVEL PRESSURE IN INCHES OF MERCURY
         F - FALLING PRESSURE   R - RISING PRESSURE
         S - STEADY PRESSURE
VSB    - VISIBILITY IN MILES
HX     - HEAT INDEX IN FAHRENHEIT
WCI    - WIND CHILL INDEX IN FAHRENHEIT
TC     - TEMPERATURE IN CELSIUS WHICH IS ALSO KNOWN AS
         TEMPERATURE IN CENTIGRADE
AFB    - AIR FORCE BASE
         LUKE AFB IS LUKE AIR FORCE BASE
         DAVIS-MONTHAN IS DAVIS-MONTHAN AIR FORCE BASE
NAS    - NAVAL AIR STATION
         EL CENTRO NAS IS EL CENTRO NAVAL AIR STATION
N/A    - NOT AVAILABLE



USA.gov is the U.S. government's official web portal to all federal, state and local government web resources and services.